Weather History for KFOK - December, 2012

Change the Weather History Date:

Thursday, December 6, 2012

  Actual Average Record
Temperature  
Mean Temperature 28 °F -  
Max Temperature 39 °F 45 °F 62 °F (2001)
Min Temperature 18 °F 27 °F 3 °F (2002)
Degree Days  
Heating Degree Days 36    
Moisture  
Dew Point 17 °F    
Average Humidity 60    
Maximum Humidity 84    
Minimum Humidity 45    
Precipitation  
Precipitation 0.00 in - - ()
Sea Level Pressure  
Sea Level Pressure 30.31 in    
Wind  
Wind Speed 9 mph (North)    
Max Wind Speed 18 mph    
Max Gust Speed 25 mph    
Visibility 10 miles    
Events      
Averages and records for this station are not official NWS values.
T = Trace of Precipitation, MM = Missing Value Source: NWS Daily Summary

Daily Weather History Graph

Daily Weather History Graph

Search for Another Location

Airport or City:

Trip Planner

Search our weather history database for the weather conditions in past years. The results will help you decide how hot, cold, wet, or windy it might be!

Date:

Astronomy

Dec. 06, 2012 Rise Set
Actual Time 7:00 AM EST 4:22 PM EST
Civil Twilight 6:30 AM EST 4:53 PM EST
Nautical Twilight 5:55 AM EST 5:27 PM EST
Astronomical Twilight 5:22 AM EST 6:00 PM EST
Moon No Moon Rise 11:49 AM EST (12/6)
Length of Visible Light 10h 23m
Length of Day
9h 21m
Waning Gibbous, 49% of the Moon is Illuminated
Dec 6
Waning Gibbous
Dec 13
New
Dec 20
First Quarter
Dec 28
Full
Jan 4
Last Quarter

Hourly Weather History & Observations

Time (EST) Temp. Windchill Dew Point Humidity Pressure Visibility Wind Dir Wind Speed Gust Speed Precip Events Conditions
12:53 AM 35.1 °F 24.5 °F 19.0 °F 52% 30.21 in 10.0 mi NNW 18.4 mph 25.3 mph N/A   Scattered Clouds
1:53 AM 33.1 °F 24.4 °F 17.1 °F 52% 30.23 in 10.0 mi NNW 11.5 mph - N/A   Clear
2:53 AM 32.0 °F 25.6 °F 17.1 °F 54% 30.26 in 10.0 mi NW 6.9 mph - N/A   Clear
3:53 AM 32.0 °F 23.6 °F 15.1 °F 50% 30.27 in 10.0 mi North 10.4 mph - N/A   Clear
4:53 AM 30.0 °F 22.4 °F 16.0 °F 56% 30.28 in 10.0 mi North 8.1 mph - N/A   Clear
5:53 AM 30.0 °F 21.7 °F 16.0 °F 56% 30.30 in 10.0 mi NNW 9.2 mph - N/A   Clear
6:53 AM 28.9 °F 22.8 °F 16.0 °F 58% 30.34 in 10.0 mi NNW 5.8 mph - N/A   Clear
7:53 AM 30.9 °F 24.3 °F 17.1 °F 57% 30.35 in 10.0 mi North 6.9 mph - N/A   Clear
8:53 AM 33.1 °F 24.4 °F 17.1 °F 52% 30.35 in 10.0 mi North 11.5 mph 19.6 mph N/A   Clear
9:53 AM 35.1 °F 27.4 °F 18.0 °F 50% 30.36 in 10.0 mi North 10.4 mph 20.7 mph N/A   Clear
10:53 AM 36.0 °F 29.0 °F 18.0 °F 48% 30.35 in 10.0 mi North 9.2 mph - N/A   Clear
11:53 AM 37.0 °F 32.4 °F 19.0 °F 48% 30.33 in 10.0 mi North 5.8 mph - N/A   Clear
12:53 PM 37.0 °F 32.4 °F 18.0 °F 46% 30.31 in 10.0 mi North 5.8 mph - N/A   Clear
1:53 PM 37.9 °F 34.4 °F 18.0 °F 45% 30.31 in 10.0 mi Variable 4.6 mph - N/A   Clear
2:53 PM 39.0 °F 34.0 °F 19.0 °F 45% 30.30 in 10.0 mi North 6.9 mph - N/A   Clear
3:53 PM 35.1 °F - 19.9 °F 54% 30.32 in 10.0 mi Calm Calm - N/A   Clear
4:53 PM 28.0 °F - 18.0 °F 66% 30.31 in 10.0 mi Calm Calm - N/A   Clear
5:53 PM 24.1 °F - 16.0 °F 71% 30.33 in 10.0 mi Calm Calm - N/A   Clear
6:53 PM 21.0 °F - 15.1 °F 78% 30.33 in 10.0 mi Calm Calm - N/A   Clear
7:53 PM 19.9 °F - 14.0 °F 78% 30.33 in 10.0 mi Calm Calm - N/A   Clear
8:53 PM 18.0 °F - 12.9 °F 81% 30.34 in 10.0 mi Calm Calm - N/A   Clear
9:53 PM 18.0 °F 12.7 °F 14.0 °F 84% 30.33 in 10.0 mi NNE 3.5 mph - N/A   Clear
10:53 PM 18.0 °F - 12.9 °F 81% 30.32 in 10.0 mi Calm Calm - N/A   Clear
11:53 PM 18.0 °F - 14.0 °F 84% 30.32 in 10.0 mi Calm Calm - N/A   Clear